Regional Weather Roundup
Issued by NWS San Diego, CA

Home | Current Version | Previous Version | Text Only | Print | Product List | Glossary On
Versions: 1 2 3 4 5 6 7 8 9 10 11 12 13 14 15 16 17 18 19 20 21 22 23 24 25 26 27 28 29 30 31 32 33 34 35 36 37 38 39 40 41 42 43 44 45 46 47 48 49 50
000
ASUS46 KSGX 051311
RWRSGX

SAN DIEGO HOURLY WEATHER ROUNDUP
NATIONAL WEATHER SERVICE SAN DIEGO CA
600 AM PDT SAT SEP 05 2015

NOTE: "FAIR" INDICATES FEW OR NO CLOUDS BELOW 12,000 FEET WITH NO
SIGNIFICANT WEATHER AND/OR OBSTRUCTIONS TO VISIBILITY.

CAZ042-043-060-061-PZZ750-775-051400-

GREATER SAN DIEGO AREA

CITY           SKY/WX    TMP DP  RH WIND       PRES   REMARKS
LINDBERGH FLD  PTCLDY    69  57  65 CALM      29.89R
POINT LOMA       N/A     66  56  70 SW1         N/A
NATIONAL CITY    N/A     67  59  74 CALM      29.88S
CHULA VISTA      N/A     64  60  85 CALM      29.80F
IMPERIAL BEACH CLEAR    N/A N/A N/A CALM      29.88S
BROWN FIELD    PTCLDY    64  58  80 E3        29.88S
MIRAMAR MCAS   PTCLDY    65  55  70 E3        29.88S
MONTGOMERY FLD CLEAR     66  57  72 CALM      29.88S

$$

NORTH SAN DIEGO COUNTY

CITY           SKY/WX    TMP DP  RH WIND       PRES   REMARKS
CAMP PENDLETON CLOUDY    66  57  72 N3        29.89R
OCEANSIDE AP   CLOUDY    66  58  75 N5        29.88R
OCEANSIDE HBR    N/A     66  61  83 NE5       29.91R
VISTA            N/A     65  60  82 CALM      29.86S
CARLSBAD       CLOUDY    67  59  75 CALM      29.88R
DEL MAR          N/A     64  60  87 CALM      29.91R
LA JOLLA SCRIP   N/A    N/A N/A N/A CALM      29.85S
FALLBROOK        N/A     64  62  95 CALM      29.88S
ESCONDIDO        N/A     65  59  81 SE2       29.90S
SAN MARCOS       N/A     65  59  80 CALM      29.86S
POWAY            N/A     64  58  81 CALM      29.88F

$$

EAST SAN DIEGO COUNTY

CITY           SKY/WX    TMP DP  RH WIND       PRES   REMARKS
RAMONA         MOCLDY    59  55  87 E5        29.90S
SANTEE LAKES     N/A     65  59  80 CALM      29.87S
LA MESA          N/A     63  58  85 CALM      29.81F
JAMUL            N/A     62  57  84 W5        29.86F
DESCANSO N       N/A     56  44  64 E5        29.76S
CAMPO            N/A     48  44  86 NE7       29.90R

$$

ORANGE COUNTY AND THE LOS ANGELES BASIN

CITY           SKY/WX    TMP DP  RH WIND       PRES   REMARKS
JOHN WAYNE AP  MOCLDY    65  59  81 E3        29.88S
LAKE FOREST FR   N/A     61  55  78 CALM      29.79R
SANTA ANA        N/A     62  56  80 CALM      29.84S
HUNTINGTON BCH   N/A     63  61  94 CALM      29.91R
LOS ALAMITOS   FAIR      62  58  87 E3        29.88S
FULLERTON      CLEAR     64  58  80 E5        29.88R
LONG BEACH     CLEAR     64  59  83 CALM      29.88S
L.A. AP        MOCLDY    65  60  84 NE5       29.89R
L.A. DOWNTOWN  CLEAR     65  58  78 CALM      29.88S

$$

THE INLAND EMPIRE

CITY           SKY/WX    TMP DP  RH WIND       PRES   REMARKS
CORONA         CLEAR     52  51  96 CALM      29.91R
CHINO          CLEAR     58  55  90 CALM      29.91R
ONTARIO        PTCLDY    61  56  83 W6        29.90R
RIVERSIDE AP   CLEAR     59  54  83 SE3       29.90R
MORENO VALLEY    N/A     56  55  98 CALM      29.88R
MARCH ARB      CLEAR     56  54  95 SE2       29.91R
HORSETHIEF CYN   N/A     56  49  77 CALM      29.92R
PERRIS           N/A     57  56  97 S2        29.94R
MENIFEE          N/A     59  58  96 CALM      29.90R
HEMET EAST       N/A     57  45  65 CALM      29.89S
FRENCH VALLEY  CLOUDY    59  55  88 CALM      29.92R
TEMECULA         N/A     58  57  96 CALM      29.87S

$$

SAN BERNARDINO AND RIVERSIDE COUNTY MOUNTAINS

CITY           SKY/WX    TMP DP  RH WIND       PRES   REMARKS
BIG BEAR AP    CLEAR     36  19  51 CALM      30.10R
PINE COVE        N/A     58  -6   7 CALM      29.81S

$$

SOUTHERN DESERT INCLUDING THE COACHELLA VALLEY

CITY           SKY/WX    TMP DP  RH WIND       PRES   REMARKS
PALM SPRINGS   CLEAR     72  51  47 NW5       29.82R
THOUSAND PALMS   N/A     75  45  33 N2        29.78R
PALM DESERT      N/A     69  55  60 CALM        N/A
THERMAL        CLEAR     65  50  58 N5        29.76R
BLYTHE         CLEAR     80  72  76 S6        29.79R
IMPERIAL AP    CLEAR     81  70  69 NE5       29.75R
EL CENTRO NAS  CLEAR     76  66  71 N8        29.78R
YUMA AZ        CLEAR     82  73  74 SE7       29.79R

$$

UPPER DESERT

CITY           SKY/WX    TMP DP  RH WIND       PRES   REMARKS
VICTORVILLE AP CLEAR     54  46  76 CALM      29.93R
HESPERIA         N/A     53  44  70 CALM      29.94R
APPLE VALLEY     N/A     57  46  65 CALM      30.00R
PALMDALE       CLEAR     58  50  75 S12       29.93R
LANCASTER      CLEAR     59  45  59 W10       29.92R
EDWARDS AFB    PTCLDY    61  38  42 SW9       29.89R
DAGGETT        CLEAR     62  46  55 W10       29.89R
29 PALMS N     CLEAR     63  36  36 NW3       29.94R
NEEDLES        CLEAR     83  58  42 SW7       29.81R

$$

REGIONAL REPORTS

CITY           SKY/WX    TMP DP  RH WIND       PRES   REMARKS
SANTA BARBARA  CLEAR     60  54  80 CALM      29.87R
SANDBERG       PTCLDY    55  39  54 W10       30.00S
LAS VEGAS NV   PTCLDY    75  36  24 S8        29.81R
PHOENIX AZ     CLOUDY    81  66  60 SE3       29.85R
TIJUANA        PTCLDY    66  55  68 N3        29.90F
ENSENADA NW      N/A     66  32  28 E2        29.85R

$$

OFFSHORE ISLANDS

CITY           SKY/WX    TMP DP  RH WIND       PRES   REMARKS
CATALINA ARPT  CLOUDY    61  55  81 CALM      29.92S
SAN NICOLAS IS CLEAR    N/A N/A N/A W10       29.89R

$$

MARINE AND OFFSHORE BUOY REPORTS

STATION/POSITION SKY/WX   TEMP    WIND        PRES    SWELL
                          AIR SEA DIR/SP/G            HT/PER/DIR
                          (F)     (DEG/KT/KT) (MB)    (FT/S/D)
TANNER BANKS               64 68  340/ 17/ 19 1012.1R   5/320/ 8
S CLEMENTE BASIN           67 71  210/  2/  4 1011.9R   5/190/17
SO. S. ROSA ISLA           63 66  320/ 17/ 21 1010.9R   3/10
W. S. BARBARA CH           61 64  330/ 16/ 19 1010.9R   5/300/ 8
M. S. BARBARA CH           65 70  220/ 10/ 12 1011.6R
S. MONICA BASIN            67 71  320/  6/  8 1011.6R   3/160/19
S PEDRO CHANNEL               73                N/A     2/170/18
DANA POINT                    74                N/A     2/200/20
OCEANSIDE OFFSHR              72                N/A     2/200/20
TORREY PINES OTR              74                N/A     3/250/11
LA JOLLA 1                 67 73  130/  3/  4 1011.5S
MISSION BAY BUOY              73                N/A     3/200/20
SAN DIEGO BAY                 77              1012.1F
POINT LOMA SOUTH              72                N/A     3/240/12

$$



USA.gov is the U.S. government's official web portal to all federal, state and local government web resources and services.